Location: Amsterdam
(42.9386°N, 74.1886°W)
Time: 01:47:33
(UTC-04:00)

OTV 5 (USA 277) - Pass Details

Date: 31 March 2019
Orbit: 309 x 326 km, 54.5° (Epoch: 21 April)

Event Time Altitude Azimuth Distance (km) Brightness Sun altitude
Exits shadow 05:40:32 - 190° (S) 1,563 ? -11.7°
Reaches altitude 10° 05:41:36 10° 178° (S) 1,200 ? -11.5°
Maximum altitude 05:43:32 18° 131° (SE) 855 ? -11.2°
Drops below altitude 10° 05:45:28 10° 84° (E) 1,203 ? -10.8°
Sets 05:47:46 0° 64° (ENE) 2,033 ? -10.4°
